Lander, WY

6:23 PM MST on February 24, 2017 (GMT -0700)
Hunt

Weather History for KLND - February, 2014

Change the Weather History Date:

Saturday, February 15, 2014

  Actual Average Record
Temperature  
Mean Temperature 39 °F 25 °F  
Max Temperature 49 °F 36 °F 57 °F (2011)
Min Temperature 29 °F 14 °F -27 °F (1903)
Degree Days  
Heating Degree Days 26 40  
Month to date heating degree days 719 625  
Since 1 July heating degree days 5235 5215  
Cooling Degree Days 0 0  
Month to date cooling degree days 0 0  
Year to date cooling degree days 0 0  
Moisture  
Dew Point 26 °F    
Average Humidity 66    
Maximum Humidity 85    
Minimum Humidity 46    
Precipitation  
Precipitation 0.00 in 0.02 in 0.53 in (2006)
Month to date precipitation 0.07 0.27  
Year to date precipitation 0.68 0.68  
Snow  
Snow 0.00 in 0.40 in - ()
Month to date snowfall 1.4 5.2  
Since 1 July snowfall 52.9 48.5  
Snow Depth T in    
Sea Level Pressure  
Sea Level Pressure 29.90 in    
Wind  
Wind Speed 4 mph (NNE)    
Max Wind Speed 13 mph    
Max Gust Speed 18 mph    
Visibility 10 miles    
Events      
T = Trace of Precipitation, MM = Missing Value Source: NWS Daily Summary

Daily Weather History Graph

Daily Weather History Graph

Search for Another Location

Airport or City:

Trip Planner

Search our weather history database for the weather conditions in past years. The results will help you decide how hot, cold, wet, or windy it might be!

Date:

Astronomy

Feb. 15, 2014 Rise Set
Actual Time 7:12 AM MST 5:46 PM MST
Civil Twilight 6:42 AM MST 6:15 PM MST
Nautical Twilight 6:09 AM MST 6:48 PM MST
Astronomical Twilight 5:37 AM MST 7:21 PM MST
Moon 6:52 PM MST (2/15) 7:10 AM MST (2/15)
Length of Visible Light 11h 32m
Length of Day
10h 34m
Waxing Gibbous, 99% of the Moon is Illuminated
Feb 15
Waxing Gibbous
Feb 22
Last Quarter
Mar 1
New
Mar 8
First Quarter
Mar 16
Full

Hourly Weather History & Observations

Time (MST) Temp. Windchill Dew Point Humidity Pressure Visibility Wind Dir Wind Speed Gust Speed Precip Events Conditions
1:53 AM 39.0 °F 33.4 °F 25.0 °F 57% 29.73 in 10.0 mi North 8.1 mph - N/A   Overcast
2:53 AM 37.0 °F 32.4 °F 26.1 °F 65% 29.75 in 10.0 mi WNW 5.8 mph - N/A   Mostly Cloudy
3:53 AM 37.0 °F 32.4 °F 25.0 °F 62% 29.75 in 10.0 mi ESE 5.8 mph - N/A   Clear
4:53 AM 37.9 °F 35.5 °F 26.1 °F 62% 29.80 in 10.0 mi NNE 3.5 mph - N/A   Partly Cloudy
5:53 AM 33.1 °F - 26.1 °F 75% 29.88 in 10.0 mi Calm Calm - N/A   Partly Cloudy
6:53 AM 32.0 °F 24.8 °F 26.1 °F 79% 29.95 in 10.0 mi NNE 8.1 mph - N/A   Overcast
7:02 AM 33.1 °F 26.9 °F 26.1 °F 75% 29.92 in 10.0 mi NE 6.9 mph - N/A   Overcast
7:53 AM 33.1 °F - 26.1 °F 75% 29.97 in 10.0 mi Calm Calm - N/A   Overcast
8:53 AM 35.1 °F 32.2 °F 27.0 °F 72% 29.97 in 10.0 mi SSE 3.5 mph - N/A   Overcast
9:53 AM 36.0 °F 33.3 °F 27.0 °F 70% 30.01 in 10.0 mi NNE 3.5 mph - N/A   Overcast
10:46 AM 37.9 °F 34.4 °F 28.0 °F 68% 30.01 in 10.0 mi WSW 4.6 mph - N/A   Overcast
10:53 AM 37.9 °F 34.4 °F 28.0 °F 68% 29.99 in 10.0 mi Variable 4.6 mph - N/A   Overcast
11:53 AM 41.0 °F 38.0 °F 27.0 °F 57% 29.97 in 10.0 mi NNE 4.6 mph - N/A   Mostly Cloudy
12:53 PM 42.1 °F 39.2 °F 26.1 °F 53% 29.96 in 10.0 mi North 4.6 mph - N/A   Overcast
1:53 PM 43.0 °F 41.3 °F 27.0 °F 53% 29.94 in 10.0 mi Variable 3.5 mph - N/A   Clear
2:53 PM 44.1 °F 42.5 °F 27.0 °F 51% 29.91 in 10.0 mi NNE 3.5 mph - N/A   Clear
3:53 PM 44.1 °F 41.5 °F 27.0 °F 51% 29.91 in 10.0 mi NNE 4.6 mph - N/A   Clear
4:53 PM 39.9 °F 36.7 °F 27.0 °F 60% 29.90 in 10.0 mi East 4.6 mph - N/A   Clear
5:53 PM 37.0 °F - 27.0 °F 67% 29.92 in 10.0 mi Calm Calm - N/A   Clear
6:53 PM 37.0 °F - 27.0 °F 67% 29.93 in 10.0 mi Calm Calm - N/A   Clear
7:53 PM 35.1 °F 31.0 °F 26.1 °F 70% 29.93 in 10.0 mi SW 4.6 mph - N/A   Partly Cloudy
8:53 PM 34.0 °F 28.8 °F 26.1 °F 73% 29.91 in 10.0 mi SW 5.8 mph - N/A   Partly Cloudy
9:53 PM 34.0 °F 28.0 °F 26.1 °F 73% 29.89 in 10.0 mi WSW 6.9 mph - N/A   Clear
10:53 PM 30.9 °F 25.2 °F 26.1 °F 82% 29.86 in 10.0 mi NNE 5.8 mph - N/A   Clear
11:53 PM 35.1 °F - 26.1 °F 70% 29.81 in 10.0 mi Calm Calm - N/A   Clear